Location: Acequia del Cap
(41.7000°N, 0.6167°E)
Time: 23:51:13
(UTC+00:00)

Meteor 2-13 Rocket - Pass Details

Date: 07 August 2020
Orbit: 937 x 957 km, 82.5° (Epoch: 22 September)

Event Time Altitude Azimuth Distance (km) Brightness Sun altitude
Rises 01:25:19 0° 351° (N) 3,616 8.3 -29.0°
Reaches altitude 10° 01:27:48 10° 352° (N) 2,670 7.5 -28.8°
Maximum altitude 01:33:55 88° 266° (W) 953 4.3 -28.3°
Enters shadow 01:34:13 82° 187° (S) 961 4.3 -28.3°
